DLH1UP EDDF-EDDM

Flight info

Callsign DLH1UP
Flight time N/A
Altitude 23000
Route CINDY8S/18 CINDY Z74 HAREM T104 ROKIL ROKIL1B
Aircraft A319/M-SDE2E3FGILORWXYZ/HB1

Departure

Time 2026-05-06 21:51
Airport Frankfurt Main Airport (EDDF)

Arrival

Time N/A
Airport Munich Airport (EDDM)
Time Latitude Longitude Altitude Speed Heading
2026-05-06 21:19 50.04656 8.56808 362 ft 0 kts 295°
2026-05-06 21:35 50.04650 8.56826 342 ft 4 kts 295°
2026-05-06 21:35 50.04639 8.56864 364 ft 3 kts 295°
2026-05-06 21:36 50.04631 8.56897 361 ft 4 kts 271°
2026-05-06 21:36 50.04639 8.56928 359 ft 4 kts 207°
2026-05-06 21:36 50.04664 8.56942 358 ft 4 kts 201°
2026-05-06 21:36 50.04659 8.56938 358 ft 4 kts 204°
2026-05-06 21:37 50.04646 8.56929 364 ft 0 kts 204°
2026-05-06 21:43 50.04644 8.56928 356 ft 1 kts 203°
2026-05-06 21:43 50.04632 8.56922 360 ft 2 kts 197°
2026-05-06 21:43 50.04602 8.56909 356 ft 7 kts 194°
2026-05-06 21:43 50.04555 8.56894 363 ft 7 kts 192°
2026-05-06 21:44 50.04491 8.56868 359 ft 13 kts 199°
2026-05-06 21:44 50.04429 8.56735 358 ft 19 kts 249°
2026-05-06 21:44 50.04379 8.56527 363 ft 20 kts 249°
2026-05-06 21:44 50.04330 8.56321 357 ft 21 kts 249°
2026-05-06 21:45 50.04279 8.56108 356 ft 21 kts 249°
2026-05-06 21:45 50.04226 8.55888 353 ft 22 kts 250°
2026-05-06 21:45 50.04172 8.55662 352 ft 23 kts 249°
2026-05-06 21:45 50.04116 8.55429 355 ft 23 kts 249°
2026-05-06 21:46 50.04059 8.55195 353 ft 24 kts 250°
2026-05-06 21:46 50.04000 8.54943 356 ft 26 kts 250°
2026-05-06 21:46 50.03926 8.54630 351 ft 36 kts 250°
2026-05-06 21:46 50.03831 8.54277 352 ft 30 kts 237°
2026-05-06 21:47 50.03743 8.53997 348 ft 29 kts 250°
2026-05-06 21:47 50.03671 8.53686 345 ft 32 kts 249°
2026-05-06 21:47 50.03591 8.53370 337 ft 31 kts 249°
2026-05-06 21:47 50.03517 8.53055 335 ft 31 kts 250°
2026-05-06 21:48 50.03461 8.52836 337 ft 14 kts 246°
2026-05-06 21:48 50.03437 8.52745 335 ft 1 kts 249°
2026-05-06 21:48 50.03437 8.52742 335 ft 1 kts 249°
2026-05-06 21:48 50.03429 8.52712 335 ft 5 kts 249°
2026-05-06 21:49 50.03413 8.52651 334 ft 3 kts 243°
2026-05-06 21:49 50.03412 8.52649 334 ft 1 kts 242°
2026-05-06 21:49 50.03401 8.52623 333 ft 7 kts 232°
2026-05-06 21:49 50.03386 8.52603 334 ft 5 kts 218°
2026-05-06 21:50 50.03332 8.52590 332 ft 9 kts 168°
2026-05-06 21:50 50.03257 8.52595 333 ft 16 kts 179°
2026-05-06 21:50 50.02912 8.52598 332 ft 88 kts 180°
2026-05-06 21:50 50.02079 8.52605 334 ft 148 kts 180°
2026-05-06 21:51 50.00927 8.52620 646 ft 170 kts 181°
2026-05-06 21:51 49.99749 8.52640 1347 ft 171 kts 182°
2026-05-06 21:51 49.98514 8.52648 1871 ft 187 kts 183°
2026-05-06 21:51 49.97147 8.52667 2358 ft 204 kts 181°
2026-05-06 21:52 49.95690 8.53377 2559 ft 241 kts 143°
2026-05-06 21:52 49.94634 8.55450 3351 ft 247 kts 118°
2026-05-06 21:52 49.93893 8.57861 3621 ft 244 kts 110°
2026-05-06 21:52 49.93683 8.60486 4013 ft 251 kts 85°
2026-05-06 21:53 49.93884 8.63330 4522 ft 277 kts 84°
2026-05-06 21:53 49.93879 8.66337 5494 ft 281 kts 100°
2026-05-06 21:53 49.93199 8.69172 6459 ft 283 kts 124°
2026-05-06 21:53 49.91942 8.71507 7350 ft 283 kts 142°
2026-05-06 21:54 49.90349 8.73301 8303 ft 285 kts 148°
2026-05-06 21:54 49.88798 8.75253 9230 ft 292 kts 136°
2026-05-06 21:54 49.87572 8.77806 10122 ft 300 kts 122°
2026-05-06 21:54 49.86470 8.80681 10522 ft 322 kts 124°
2026-05-06 21:55 49.85171 8.83658 10838 ft 344 kts 127°
2026-05-06 21:55 49.83760 8.86689 11476 ft 353 kts 128°
2026-05-06 21:55 49.82285 8.89791 12284 ft 357 kts 128°
2026-05-06 21:55 49.80805 8.92902 13112 ft 360 kts 127°
2026-05-06 21:56 49.79319 8.96049 13901 ft 364 kts 127°
2026-05-06 21:56 49.77828 8.99231 14616 ft 367 kts 127°
2026-05-06 21:56 49.76325 9.02456 15327 ft 370 kts 126°
2026-05-06 21:56 49.74820 9.05702 16051 ft 373 kts 126°
2026-05-06 21:57 49.73307 9.08966 16850 ft 373 kts 127°
2026-05-06 21:57 49.71809 9.12187 17598 ft 375 kts 127°
2026-05-06 21:57 49.70259 9.15514 18304 ft 378 kts 127°
2026-05-06 21:57 49.68718 9.18820 18916 ft 381 kts 127°
2026-05-06 21:58 49.67183 9.22107 19523 ft 384 kts 127°
2026-05-06 21:58 49.65594 9.25505 20146 ft 387 kts 127°
2026-05-06 21:58 49.64033 9.28842 20748 ft 390 kts 127°
2026-05-06 21:58 49.62435 9.32249 21345 ft 393 kts 127°
2026-05-06 21:59 49.60823 9.35678 21932 ft 396 kts 127°
2026-05-06 21:59 49.59201 9.39127 22508 ft 399 kts 127°
2026-05-06 21:59 49.57566 9.42608 22807 ft 402 kts 127°
2026-05-06 21:59 49.55907 9.46132 22862 ft 410 kts 127°
2026-05-06 22:00 49.54223 9.49698 22870 ft 417 kts 128°
2026-05-06 22:00 49.52483 9.53375 22867 ft 432 kts 128°
2026-05-06 22:00 49.50690 9.57162 22866 ft 444 kts 128°
2026-05-06 22:00 49.48850 9.61043 22865 ft 455 kts 128°
2026-05-06 22:01 49.46961 9.65023 22867 ft 464 kts 128°
2026-05-06 22:01 49.45036 9.69071 22865 ft 472 kts 128°
2026-05-06 22:01 49.43084 9.73172 22866 ft 479 kts 128°
2026-05-06 22:01 49.41114 9.77308 23230 ft 478 kts 128°
2026-05-06 22:02 49.39191 9.81345 23510 ft 455 kts 128°
2026-05-06 22:02 49.37962 9.83921 23769 ft 448 kts 128°
2026-05-06 22:02 49.36170 9.87673 23934 ft 423 kts 129°
2026-05-06 22:02 49.34469 9.91234 23695 ft 407 kts 129°
2026-05-06 22:03 49.32810 9.94694 23153 ft 399 kts 129°
2026-05-06 22:03 49.31130 9.98172 22872 ft 417 kts 130°
2026-05-06 22:03 49.29366 10.01807 22860 ft 431 kts 129°
2026-05-06 22:03 49.27550 10.05548 22867 ft 443 kts 129°
2026-05-06 22:04 49.25694 10.09375 22869 ft 453 kts 129°
2026-05-06 22:04 49.23805 10.13285 22882 ft 456 kts 129°
2026-05-06 22:04 49.21970 10.17097 22860 ft 429 kts 129°
2026-05-06 22:04 49.20212 10.20749 22858 ft 429 kts 129°
2026-05-06 22:05 49.18413 10.24457 22875 ft 440 kts 130°
2026-05-06 22:05 49.16562 10.28256 22893 ft 450 kts 130°
2026-05-06 22:05 49.14673 10.32129 22905 ft 459 kts 130°
2026-05-06 22:05 49.12757 10.36054 22904 ft 455 kts 130°
2026-05-06 22:06 49.10918 10.39833 22906 ft 438 kts 130°
2026-05-06 22:06 49.09076 10.43605 22907 ft 449 kts 130°
2026-05-06 22:06 49.07184 10.47458 22908 ft 455 kts 130°
2026-05-06 22:06 49.05288 10.51319 22912 ft 459 kts 130°
2026-05-06 22:07 49.03359 10.55239 22913 ft 463 kts 130°
2026-05-06 22:07 49.01483 10.59066 22911 ft 437 kts 130°
2026-05-06 22:07 48.99719 10.62674 22885 ft 413 kts 130°
2026-05-06 22:07 48.98047 10.66085 22915 ft 391 kts 130°
2026-05-06 22:08 48.96449 10.69332 22911 ft 382 kts 130°
2026-05-06 22:08 48.94805 10.72638 22911 ft 401 kts 130°
2026-05-06 22:08 48.93093 10.76072 22908 ft 411 kts 130°
2026-05-06 22:08 48.91382 10.79512 22910 ft 416 kts 130°
2026-05-06 22:09 48.89631 10.83035 22907 ft 418 kts 130°
2026-05-06 22:09 48.87878 10.86565 22904 ft 419 kts 130°